Weather History for KSFF - May, 2012

Change the Weather History Date:

Tuesday, May 8, 2012

  Actual Average Record
Temperature  
Mean Temperature 59 °F 53 °F  
Max Temperature 75 °F 66 °F - ()
Min Temperature 42 °F 39 °F - ()
Degree Days  
Heating Degree Days 6 12  
Month to date heating degree days 128 107  
Since 1 July heating degree days 5762 5962  
Cooling Degree Days 0 0  
Month to date cooling degree days 0 0  
Year to date cooling degree days 1 0  
Growing Degree Days 8 (Base 50)    
Moisture  
Dew Point 40 °F    
Average Humidity 54    
Maximum Humidity 83    
Minimum Humidity 25    
Precipitation  
Precipitation 0.00 in 0.06 in - ()
Month to date precipitation 0.47 0.36  
Year to date precipitation 10.01 6.50  
Sea Level Pressure  
Sea Level Pressure 30.04 in    
Wind  
Wind Speed 2 mph (NNW)    
Max Wind Speed 13 mph    
Max Gust Speed 16 mph    
Visibility 10 miles    
Events      
T = Trace of Precipitation, MM = Missing Value Source: NWS Daily Summary

Daily Weather History Graph

Daily Weather History Graph

Search for Another Location

Airport or City:

Trip Planner

Search our weather history database for the weather conditions in past years. The results will help you decide how hot, cold, wet, or windy it might be!

Date:

Astronomy

May. 08, 2012 Rise Set
Actual Time 5:20 AM PDT 8:12 PM PDT
Civil Twilight 4:44 AM PDT 8:47 PM PDT
Nautical Twilight 3:59 AM PDT 9:33 PM PDT
Astronomical Twilight 3:04 AM PDT 10:28 PM PDT
Moon 11:31 PM PDT (5/8) 7:26 AM PDT (5/8)
Length of Visible Light 16h 03m
Length of Day
14h 51m
Waning Gibbous, 90% of the Moon is Illuminated
May 8
Waning Gibbous
May 12
Last Quarter
May 20
New
May 28
First Quarter
Jun 4
Full

Hourly Weather History & Observations

Time (PDT) Temp. Windchill Dew Point Humidity Pressure Visibility Wind Dir Wind Speed Gust Speed Precip Events Conditions
12:53 AM 46.9 °F - 37.9 °F 71% 30.17 in 10.0 mi Calm Calm - N/A   Clear
1:53 AM 44.1 °F 42.5 °F 39.0 °F 82% 30.16 in 10.0 mi NNE 3.5 mph - N/A   Clear
2:53 AM 45.0 °F 43.5 °F 37.9 °F 76% 30.15 in 10.0 mi NNE 3.5 mph - N/A   Clear
3:53 AM 43.0 °F - 37.9 °F 82% 30.15 in 10.0 mi Calm Calm - N/A   Clear
4:53 AM 43.0 °F 41.3 °F 37.9 °F 82% 30.14 in 10.0 mi NNE 3.5 mph - N/A   Clear
5:53 AM 43.0 °F 41.3 °F 37.9 °F 82% 30.13 in 10.0 mi NE 3.5 mph - N/A   Clear
6:53 AM 46.0 °F - 39.0 °F 76% 30.14 in 10.0 mi Calm Calm - N/A   Clear
7:53 AM 48.9 °F - 39.9 °F 71% 30.14 in 10.0 mi Calm Calm - N/A   Clear
8:53 AM 54.0 °F - 41.0 °F 62% 30.13 in 10.0 mi Calm Calm - N/A   Clear
9:53 AM 60.1 °F - 42.1 °F 51% 30.10 in 10.0 mi Calm Calm - N/A   Clear
10:53 AM 64.0 °F - 42.1 °F 45% 30.09 in 10.0 mi Calm Calm - N/A   Clear
11:53 AM 68.0 °F - 39.0 °F 35% 30.06 in 10.0 mi Calm Calm - N/A   Clear
12:53 PM 70.0 °F - 37.0 °F 30% 30.03 in 10.0 mi Calm Calm - N/A   Clear
1:53 PM 72.0 °F - 37.0 °F 28% 30.02 in 10.0 mi West 8.1 mph - N/A   Clear
2:53 PM 73.0 °F - 37.0 °F 27% 29.99 in 10.0 mi Calm Calm - N/A   Clear
3:53 PM 73.9 °F - 39.0 °F 28% 29.96 in 10.0 mi Calm Calm - N/A   Clear
4:53 PM 73.0 °F - 36.0 °F 26% 29.94 in 10.0 mi SW 9.2 mph - N/A   Partly Cloudy
5:53 PM 71.1 °F - 37.9 °F 30% 29.93 in 10.0 mi West 5.8 mph - N/A   Clear
6:53 PM 71.1 °F - 39.0 °F 31% 29.92 in 10.0 mi SW 9.2 mph - N/A   Partly Cloudy
7:53 PM 66.9 °F - 42.1 °F 40% 29.91 in 10.0 mi Calm Calm - N/A   Clear
8:53 PM 59.0 °F - 43.0 °F 55% 29.91 in 10.0 mi Calm Calm - N/A   Clear
9:53 PM 55.0 °F - 43.0 °F 64% 29.91 in 10.0 mi Calm Calm - N/A   Clear
10:53 PM 53.1 °F - 44.1 °F 71% 29.90 in 10.0 mi Calm Calm - N/A   Clear
11:53 PM 52.0 °F - 43.0 °F 71% 29.89 in 10.0 mi NNE 3.5 mph - N/A   Clear